Vertical_Velocity
-8 12 -10 -10 3 -0 -0 1 -2 0 -3 2 -1 -15 4 6 3 -2 4 -1 -0 -6 -2 0 -0 0 -0 -1 2 -3 -1 -2 -1 -3 -3 -3 -3 -0 -3 -1 -4 -4 -4 -3 -1 -1 -2 3 1
1 0 6 -3 2 -0 1 -1 1 2 -2 4 -3 -5 -6 7 -1 0 -2 3 2 -3 -10 0 1 2 -1 1 2 1 1 -2 -2 -2 -2 -5 -4 -1 -5 2 -3 -3 1 -2 0 -1 1 2 1
11 10 2 -1 1 1 1 1 1 4 1 -2 -2 4 -1 5 8 -2 1 -1 7 -3 4 5 -0 -1 -2 -2 1 -1 -1 -2 -2 -3 -4 -7 1 -9 -0 -1 0 -1 -3 -2 -1 5 -1 -2 -0
9 -5 -6 -3 -0 -10 -2 1 -0 2 12 2 -3 -2 -4 8 -4 -5 3 1 2 -7 1 1 -2 -2 0 -0 0 -1 -2 2 1 -1 -4 -3 6 -12 1 -0 1 1 -0 1 1 3 -1 -1 -3
20 -4 -2 -1 -3 -1 1 -1 -0 1 3 4 -3 13 -1 1 -1 -5 1 6 -4 2 0 -3 -2 -2 4 2 -1 1 -1 -1 -2 0 -4 2 1 -11 -0 1 2 0 -1 -1 -1 -2 -3 -2 -3
1 -8 -2 -0 -2 -2 1 5 -3 -2 5 11 -6 -5 10 3 -5 2 -0 1 -0 -4 -1 -0 -2 1 -0 -2 0 -0 1 1 -3 -1 5 -4 4 -10 -1 -6 -1 0 -3 1 -1 -2 3 -3 1
-5 -1 -3 0 -3 -4 2 -1 -4 -1 0 11 -8 -4 6 5 2 -0 1 1 -1 -0 -1 1 0 -0 -1 1 2 1 -1 -0 -2 3 -0 1 6 -1 1 -0 -5 -6 -3 -4 -5 -5 -2 1 1
-9 -3 1 1 -1 -8 5 0 -0 -6 11 8 -17 -1 6 1 2 1 -0 1 0 -0 2 -1 -1 1 -2 -2 -3 -1 0 3 2 -3 3 3 -0 -1 -7 -3 1 5 1 -1 -2 3 -6 -1 -2
-11 1 0 0 1 -8 7 -5 13 2 -10 6 11 -16 -12 -3 -1 -2 -2 -1 -1 1 1 2 1 -1 -3 -0 2 2 3 0 2 3 1 -1 -5 -12 -1 4 1 1 -4 -0 3 -10 5 -4 5
1 -1 -2 -4 -6 -2 1 2 -3 -1 6 15 5 16 3 -0 1 -2 2 -1 1 -2 -1 1 1 -1 0 -0 2 -0 -5 0 -0 2 3 -4 -6 -5 -2 1 2 -1 1 3 8 -2 10 0 5
-6 -0 -2 -1 -7 2 0 2 11 -6 7 0 -7 -0 3 2 2 2 -1 -0 -1 -3 -3 -3 -2 -1 -0 -5 -5 -3 -1 -4 1 5 -5 -5 0 -2 -2 5 -6 -4 2 -2 -7 -6 3 1 -2
-2 -1 -2 3 1 3 1 0 3 -1 3 -8 -2 -7 -4 0 2 -2 0 -1 -5 -4 -5 -3 -4 -2 -3 4 0 -0 -2 -3 -3 2 2 -1 -0 -3 -3 11 8 11 -4 -6 -18 3 3 7 -0
7 -1 3 1 -5 -5 1 2 6 4 6 -2 -4 2 2 3 4 4 6 3 -2 -3 -4 -4 -3 -3 4 2 1 -3 1 -0 -4 -1 0 6 6 2 9 3 -10 -3 -11 6 -4 3 -2 -7 9
10 -0 0 2 -2 2 -6 -7 3 12 4 1 -1 14 1 5 -1 0 0 3 -0 -3 1 -3 -0 -5 -5 5 -2 -1 -1 -2 -6 -8 6 5 -3 -10 9 -12 5 -4 3 -10 -6 1 15 10 3
-3 -0 -2 -2 -0 2 -5 -10 -3 0 13 0 9 -3 1 1 -7 -6 -2 -11 -6 1 -5 -3 -2 0 -7 2 -4 -2 3 -0 -1 -5 12 -12 12 -12 -5 -4 2 -12 8 -0 1 5 7 -5 -1
-1 -2 1 2 1 2 -2 -4 -10 1 0 12 -1 -1 2 -2 -1 -6 -1 -1 -5 1 -5 2 2 -5 -7 -7 -7 3 6 2 -10 16 -12 -39 17 -3 -3 -11 -13 -19 -8 -5 10 -6 -11 0 -1
0 -1 0 3 -0 1 1 -2 -17 5 5 2 -7 5 1 -11 -2 12 2 4 -2 1 -3 -2 -2 -2 -12 9 -4 -3 10 5 -8 4 -4 1 2 -18 -20 -15 -14 9 34 -11 21 -4 -6 -0 2
-1 -0 -1 1 -1 3 1 -3 -2 -11 8 -2 4 10 -0 -1 -4 -10 13 3 3 2 -3 7 6 -4 -2 -6 1 4 3 1 -9 -0 12 -3 6 3 -18 -3 -6 9 -5 -2 -3 -1 10 13 2
-1 -2 1 -3 1 -1 -1 -0 -2 -1 3 0 5 -7 11 3 -1 -3 -4 26 9 7 1 -2 -5 0 -5 -7 -1 2 -2 9 6 -3 9 3 5 -8 6 2 -7 1 -7 -0 -3 -3 -3 -6 17
2 -0 -2 -4 2 -6 -1 -1 -1 -0 -0 -0 -2 1 -8 -1 -1 10 -5 10 -0 -1 -5 -4 2 -5 -7 -3 -5 -5 3 -1 9 4 -2 -7 -2 1 2 -3 1 1 -2 -0 -5 1 -2 3 -1
1 -2 -1 -6 3 1 -1 -6 -1 -1 -2 -1 8 3 -4 -10 -2 9 6 5 11 -1 -2 0 -8 -2 -7 -3 8 6 2 5 -3 -1 1 3 -4 -0 -1 -0 -3 0 -0 -4 5 -0 1 -1 1
3 -4 0 -0 -2 -4 2 -4 -2 -0 -1 1 3 3 -4 -5 -5 -4 6 6 -15 -4 8 3 3 -3 -2 1 0 -6 -1 -4 -4 2 2 3 -3 1 -0 -2 -3 0 2 2 2 2 3 -1 2
-3 0 -2 -2 0 -6 2 -3 -5 0 1 1 -2 3 -5 -3 -0 -1 12 -16 8 31 17 -3 6 2 -4 -4 -0 -3 -1 -0 -4 -0 1 -6 0 -3 -2 -1 -2 -2 5 -1 2 2 2 -2 -0
-1 -1 -0 0 -2 -1 -2 -4 -1 -2 -8 -1 1 -2 3 -6 -6 -11 -4 -39 -13 -6 -7 12 -5 0 -2 -5 4 5 -4 -1 4 2 0 2 1 -4 1 -0 4 2 1 -1 -7 6 7 2 1
3 1 -4 -5 -6 -4 -1 -3 -12 -2 -2 -5 -4 -2 1 -4 7 2 -10 -22 -6 0 -4 15 -3 -3 -1 -6 2 1 0 0 4 3 3 -5 -2 -4 1 -3 -2 -1 -0 -0 1 -3 -2 2 -1
-1 -1 -4 -1 -2 -4 -1 -0 -14 -7 -5 1 -1 -2 6 -2 -10 -12 17 8 7 -23 -10 11 3 -2 1 -1 -1 0 3 -1 -3 -1 3 -4 -3 -2 5 -2 0 -0 1 -6 -5 0 -2 -1 -2
-11 -2 -10 0 -2 -0 -2 -2 7 5 2 2 2 2 2 12 8 4 5 12 1 -5 -17 24 11 -3 1 0 -2 5 3 2 -5 -6 0 5 -2 -13 -0 -10 -6 1 2 -6 -9 -1 -1 1 2
-7 -7 -17 -6 -1 -1 -1 -2 -3 6 -0 0 1 -2 11 -5 1 0 1 -7 -12 -5 7 17 19 3 -6 -4 -5 1 6 3 3 5 6 -0 2 -3 -4 -3 -11 -3 2 4 -3 -1 -1 -6 -0
-3 -1 -2 -6 -2 -5 -2 -6 -1 -3 -3 -1 2 5 1 5 -1 -5 -8 -14 10 11 27 -9 -40 43 7 9 -6 -8 -3 2 6 4 3 6 -1 -11 -13 13 4 -10 5 8 -7 -3 -0 2 -5
-2 -3 -3 -5 -12 -1 -5 -11 -2 -1 -1 -4 3 3 2 1 18 -3 -5 -4 1 2 25 -14 0 -34 30 -5 4 28 -1 2 0 3 4 12 -2 -5 -4 -7 1 -9 -2 4 0 -5 2 -2 -5
Height
1512 1514 1516 1517 1523 1517 1510 1504 1497 1500 1499 1499 1499 1504 1512 1514 1517 1531 1531 1532 1535 1536 1540 1543 1544 1545 1546 1547 1549 1550 1552 1553 1554 1555 1556 1557 1560 1561 1563 1563 1564 1564 1564 1566 1566 1567 1569 1569 1571
1512 1513 1514 1516 1525 1519 1508 1492 1498 1497 1499 1500 1503 1506 1512 1524 1522 1526 1531 1534 1535 1536 1538 1542 1544 1545 1546 1548 1549 1550 1551 1553 1555 1556 1557 1558 1559 1562 1563 1563 1564 1564 1565 1566 1567 1568 1570 1571 1572
1510 1513 1518 1521 1519 1513 1506 1491 1494 1497 1498 1498 1503 1509 1516 1525 1527 1529 1532 1533 1536 1539 1540 1542 1544 1546 1547 1548 1549 1550 1552 1553 1556 1556 1558 1558 1559 1562 1563 1564 1565 1565 1567 1569 1569 1571 1572 1573 1574
1512 1517 1521 1524 1519 1506 1492 1491 1492 1494 1499 1502 1503 1516 1523 1526 1525 1529 1532 1535 1537 1540 1540 1542 1544 1547 1547 1549 1550 1551 1553 1554 1556 1558 1559 1560 1560 1562 1564 1566 1567 1568 1569 1570 1571 1573 1573 1573 1574
1517 1524 1527 1532 1520 1498 1488 1493 1496 1497 1502 1508 1507 1525 1527 1529 1528 1531 1534 1537 1538 1539 1540 1542 1544 1546 1548 1549 1551 1552 1554 1555 1557 1559 1560 1560 1561 1563 1564 1568 1570 1570 1571 1572 1573 1574 1573 1573 1574
1521 1526 1537 1537 1523 1505 1493 1493 1497 1500 1506 1514 1517 1522 1530 1532 1532 1534 1536 1537 1538 1538 1540 1542 1545 1547 1549 1550 1552 1553 1555 1557 1558 1560 1561 1562 1564 1565 1568 1570 1571 1571 1572 1572 1574 1575 1574 1574 1575
1516 1522 1538 1539 1531 1518 1494 1494 1497 1501 1506 1511 1516 1524 1533 1534 1533 1536 1537 1539 1539 1539 1540 1543 1545 1547 1550 1551 1553 1555 1557 1559 1560 1561 1563 1565 1567 1569 1570 1571 1571 1570 1571 1573 1575 1575 1577 1577 1579
1496 1502 1524 1535 1531 1522 1494 1495 1496 1499 1508 1512 1511 1524 1533 1534 1535 1536 1538 1539 1540 1540 1541 1543 1545 1548 1550 1552 1554 1557 1559 1559 1560 1563 1565 1567 1569 1570 1570 1571 1571 1572 1574 1575 1575 1575 1575 1578 1581
1510 1509 1523 1528 1530 1508 1495 1497 1500 1501 1505 1510 1512 1520 1526 1533 1535 1537 1539 1540 1541 1540 1541 1544 1546 1549 1551 1553 1556 1558 1559 1560 1561 1564 1566 1568 1569 1569 1571 1573 1575 1577 1577 1578 1578 1579 1576 1578 1582
1512 1513 1510 1510 1512 1508 1503 1500 1500 1504 1505 1514 1519 1526 1530 1532 1535 1536 1538 1539 1541 1542 1542 1545 1547 1550 1553 1555 1557 1558 1561 1562 1564 1566 1569 1571 1571 1571 1573 1576 1578 1579 1581 1582 1582 1580 1579 1580 1583
1514 1512 1505 1506 1501 1510 1507 1502 1499 1507 1513 1515 1519 1525 1530 1533 1535 1536 1540 1541 1542 1543 1545 1546 1547 1551 1554 1556 1558 1561 1563 1564 1566 1569 1572 1571 1573 1574 1575 1576 1579 1580 1582 1583 1582 1581 1579 1580 1583
1516 1512 1502 1501 1505 1507 1506 1504 1502 1505 1512 1517 1522 1525 1529 1532 1535 1537 1541 1542 1544 1546 1547 1549 1551 1552 1554 1557 1559 1561 1563 1564 1568 1571 1572 1574 1575 1575 1576 1579 1580 1581 1582 1581 1581 1581 1581 1581 1581
1511 1512 1510 1515 1513 1513 1514 1507 1512 1508 1512 1518 1523 1527 1530 1533 1536 1539 1541 1544 1545 1547 1549 1551 1552 1554 1555 1557 1559 1560 1563 1566 1570 1571 1574 1576 1577 1576 1578 1580 1581 1583 1580 1580 1583 1584 1583 1581 1582
1511 1513 1515 1517 1517 1517 1514 1516 1516 1510 1513 1517 1523 1527 1530 1533 1534 1538 1542 1545 1546 1548 1550 1552 1555 1557 1557 1557 1559 1561 1564 1568 1571 1573 1576 1576 1577 1578 1579 1582 1581 1580 1581 1584 1584 1584 1587 1586 1583
1515 1514 1515 1513 1515 1515 1518 1525 1521 1516 1512 1517 1522 1526 1529 1533 1534 1536 1540 1543 1546 1547 1549 1552 1555 1559 1560 1560 1561 1562 1565 1570 1572 1573 1577 1578 1580 1578 1579 1581 1581 1580 1581 1583 1581 1586 1583 1583 1581
1521 1517 1522 1515 1517 1522 1525 1541 1519 1512 1516 1519 1521 1524 1528 1532 1533 1536 1539 1542 1545 1548 1551 1552 1555 1558 1560 1561 1561 1563 1566 1569 1571 1574 1577 1577 1579 1576 1577 1580 1583 1583 1584 1584 1585 1585 1583 1582 1581
1522 1530 1524 1516 1513 1517 1522 1531 1516 1515 1520 1522 1524 1524 1526 1533 1536 1536 1539 1541 1542 1546 1549 1551 1555 1557 1558 1560 1562 1563 1566 1569 1571 1574 1577 1577 1579 1579 1578 1581 1584 1584 1587 1585 1585 1585 1583 1582 1581
1516 1525 1517 1515 1513 1515 1519 1518 1513 1517 1519 1518 1521 1527 1525 1527 1531 1534 1538 1541 1543 1546 1547 1549 1553 1556 1558 1560 1562 1563 1565 1569 1571 1572 1576 1576 1577 1580 1581 1582 1583 1584 1585 1585 1584 1585 1584 1583 1582
1506 1517 1524 1510 1508 1516 1519 1518 1516 1514 1514 1519 1521 1526 1526 1527 1529 1532 1536 1540 1540 1544 1546 1547 1551 1554 1555 1557 1560 1561 1564 1568 1570 1572 1574 1575 1577 1579 1581 1582 1584 1584 1584 1583 1583 1584 1584 1584 1582
1509 1518 1511 1513 1506 1517 1527 1526 1518 1515 1512 1512 1517 1520 1525 1527 1527 1530 1533 1540 1542 1542 1544 1547 1549 1552 1554 1556 1559 1561 1563 1564 1568 1570 1572 1573 1575 1575 1578 1581 1581 1580 1582 1581 1583 1584 1585 1583 1581
1507 1509 1502 1504 1517 1521 1524 1528 1522 1514 1512 1514 1518 1518 1521 1525 1527 1530 1534 1536 1538 1542 1543 1542 1545 1549 1553 1555 1558 1560 1560 1563 1565 1567 1570 1572 1573 1574 1576 1577 1578 1580 1580 1580 1581 1581 1582 1578 1578
1502 1483 1486 1500 1510 1536 1515 1542 1522 1513 1513 1512 1514 1515 1514 1518 1523 1526 1531 1534 1540 1543 1543 1543 1542 1546 1550 1554 1555 1556 1556 1559 1562 1564 1567 1569 1572 1574 1575 1577 1578 1579 1580 1580 1579 1580 1578 1578 1579
1474 1465 1472 1481 1499 1516 1523 1529 1517 1511 1513 1505 1505 1508 1509 1511 1515 1519 1526 1533 1536 1543 1542 1542 1542 1543 1547 1550 1552 1553 1553 1556 1559 1560 1562 1565 1569 1572 1573 1576 1578 1578 1579 1579 1579 1578 1577 1577 1578
1460 1465 1468 1473 1495 1522 1510 1514 1516 1510 1499 1497 1492 1494 1500 1505 1507 1515 1521 1528 1534 1536 1540 1541 1540 1540 1544 1546 1548 1550 1551 1554 1558 1559 1560 1563 1566 1569 1572 1574 1575 1575 1575 1576 1577 1577 1577 1578 1578
1461 1477 1515 1524 1531 1535 1500 1522 1504 1489 1488 1481 1482 1491 1496 1500 1506 1511 1516 1523 1526 1531 1535 1536 1538 1538 1539 1541 1546 1548 1549 1552 1555 1557 1558 1561 1563 1565 1568 1569 1571 1572 1573 1573 1573 1575 1576 1578 1578
1468 1474 1504 1514 1517 1512 1499 1510 1495 1479 1480 1481 1485 1489 1493 1496 1500 1505 1515 1518 1519 1520 1523 1531 1533 1535 1537 1538 1542 1547 1549 1550 1553 1556 1557 1558 1559 1560 1562 1563 1566 1566 1568 1570 1572 1574 1575 1576 1577
1468 1482 1465 1485 1482 1498 1497 1485 1477 1481 1481 1483 1483 1487 1486 1493 1503 1503 1511 1517 1513 1513 1507 1525 1529 1531 1534 1536 1541 1545 1548 1550 1550 1554 1555 1556 1556 1556 1558 1559 1561 1563 1566 1569 1572 1574 1574 1574 1577
1459 1456 1488 1490 1507 1529 1523 1523 1500 1487 1482 1479 1484 1484 1488 1492 1494 1500 1506 1509 1512 1513 1517 1524 1531 1526 1531 1535 1540 1544 1546 1547 1549 1551 1552 1553 1552 1554 1557 1557 1561 1561 1563 1566 1568 1572 1572 1571 1573
1463 1470 1468 1476 1486 1514 1529 1518 1475 1476 1472 1473 1477 1481 1486 1489 1493 1497 1501 1505 1507 1508 1516 1525 1526 1535 1529 1532 1536 1540 1543 1544 1546 1548 1550 1551 1549 1551 1555 1556 1557 1560 1562 1564 1565 1568 1568 1569 1569
1446 1459 1467 1497 1497 1484 1507 1515 1471 1469 1466 1471 1479 1484 1490 1493 1497 1498 1502 1505 1507 1506 1512 1523 1522 1527 1532 1530 1533 1538 1539 1542 1545 1546 1547 1549 1547 1548 1550 1552 1554 1556 1559 1562 1562 1563 1564 1564 1566